EW5295 Weather Reports


time (UTC)temp
C
wind
direction
speed
KPH
gust
KPH
rain 1hr
cm
rain 24hr
cm
rain mn
cm
humidity
%
barometer
mb
20260508054508 13 146 0.0 0.0 0.00 0.00 0.00 69 1015.9
20260508051519 13 146 0.0 0.0 0.00 0.00 0.00 66 1015.8
20260508044533 14 146 0.0 0.0 0.00 0.00 0.00 64 1015.8
20260508043016 15 146 0.0 0.0 0.00 0.00 0.00 61 1015.7
20260508041517 15 146 0.0 0.0 0.00 0.00 0.00 60 1015.6
20260508034603 15 146 0.0 0.0 0.00 0.00 0.00 58 1015.3
20260508033053 16 146 0.0 0.0 0.00 0.00 0.00 60 1015.2
20260508023015 18 146 0.0 0.0 0.00 0.00 0.00 57 1015.1
20260508014547 20 146 0.0 0.0 0.00 0.00 0.00 53 1015.3
20260508010038 20 134 0.0 1.6 0.00 0.00 0.00 51 1015.6
20260508004559 20 134 0.0 1.6 0.00 0.00 0.00 52 1015.7
20260508000018 20 138 0.0 1.6 0.00 0.00 0.00 48 1016.0
20260507234518 20 117 0.0 1.6 0.00 0.00 0.00 49 1016.2
20260507231547 21 143 0.0 1.6 0.00 0.00 0.00 44 1016.5
20260507230100 20 160 0.0 1.6 0.00 0.00 0.00 41 1016.7
20260507224605 20 173 0.0 1.6 0.00 0.00 0.00 41 1016.9
20260507223049 20 218 0.0 4.8 0.00 0.00 0.00 38 1017.1
20260507221539 20 152 0.0 3.2 0.00 0.00 0.00 42 1017.3
20260507214533 20 141 0.0 1.6 0.00 0.00 0.00 42 1017.6
20260507213037 20 76 0.0 3.2 0.00 0.00 0.00 42 1017.7
20260507210104 20 165 0.0 4.8 0.00 0.00 0.00 47 1018.1
20260507210023 19 165 0.0 4.8 0.00 0.00 0.00 46 1018.1
20260507204614 18 144 0.0 3.2 0.00 0.00 0.00 51 1018.2
20260507204537 18 129 0.0 3.2 0.00 0.00 0.00 51 1018.2
20260507184522 17 175 0.0 1.6 0.00 0.00 0.00 60 1019.3
20260507174515 13 168 0.0 1.6 0.00 0.00 0.00 68 1019.8
20260507173017 13 138 0.0 1.6 0.00 0.00 0.00 69 1019.9
20260507163050 11 117 0.0 1.6 0.00 0.00 0.00 75 1019.9
20260507163026 11 150 0.0 1.6 0.00 0.00 0.00 75 1019.9
20260507160004 11 169 0.0 0.0 0.00 0.00 0.00 78 1020.0
20260507154534 11 141 0.0 0.0 0.00 0.00 0.00 77 1020.0
20260507144604 10 166 0.0 0.0 0.00 0.00 0.00 81 1019.8
20260507144524 10 166 0.0 0.0 0.00 0.00 0.00 81 1019.8
20260507143113 9 156 0.0 0.0 0.00 0.00 0.00 81 1019.8
20260507143037 9 156 0.0 0.0 0.00 0.00 0.00 81 1019.8
20260507141504 10 159 0.0 0.0 0.00 0.00 0.00 82 1019.8
20260507140043 -17 0.0 0.0 0.00 0.00 0.00 1019.6
20260507133051 -17 0.0 0.0 0.00 0.00 0.00 1019.4
20260507124544 9 156 0.0 1.6 0.00 0.00 0.00 81 1019.4
20260507103050 10 159 0.0 1.6 0.00 0.00 0.00 78 1020.0
20260507100033 10 193 0.0 1.6 0.00 0.00 0.00 78 1020.2
20260507083031 10 134 0.0 1.6 0.00 0.00 0.00 78 1020.6
20260507080020 10 107 0.0 1.6 0.00 0.00 0.00 80 1020.6
20260507074504 10 139 0.0 1.6 0.00 0.00 0.00 81 1020.6
20260507071542 11 129 0.0 1.6 0.00 0.00 0.00 83 1020.4
20260507070034 11 143 0.0 1.6 0.00 0.00 0.00 84 1020.4